Torna al catalogo

STARLINK-6352

AttivoComunicazioniVLEO
NORAD 56782·PAYLOAD·🇺🇸 United States

Lanciato May 31, 2023 da Vandenberg Space Force Base

Loading…

Prossimi Passaggi (prossime 24 ore)

TLE

AggiornatoSource: CelesTrak SupGP

Epoca: Sep 15, 2026, 02:31 UTC

1 56782C 23078R   26258.10534722  .00683430  00000+0  45905-1 0  2580
2 56782  70.0007 206.9041 0002954 273.3894 148.5519 15.06362867    10

Traccia STARLINK-6352 in tempo reale con AllMySat

Download on the App Store